This is the latest recevied weather packets stored in our database for station/object N4BBA. If no packets are shown the sender has not sent any weather packets the latest 10 day(s).
| Time | Temp. | Humidity | Pressure | Rain* | Wind** | Luminosity | Snow |
|---|---|---|---|---|---|---|---|
| 1777812220 | 8.33° C | 98% | 1018.8 hPa | 0 mm | - | 378 W/m² | - |
| 1777811917 | 7.78° C | 98% | 1018.7 hPa | 0 mm | - | 357 W/m² | - |
| 1777811617 | 7.22° C | 98% | 1018.5 hPa | 0 mm | - | 331 W/m² | - |
| 1777811311 | 6.67° C | 98% | 1018.6 hPa | 0 mm | - | 101 W/m² | - |
| 1777811009 | 6.67° C | 98% | 1018.5 hPa | 0 mm | - | 90 W/m² | - |
| 1777810706 | 6.11° C | 98% | 1018.2 hPa | 0 mm | - | 97 W/m² | - |
| 1777810402 | 6.11° C | 98% | 1018.4 hPa | 0 mm | - | 69 W/m² | - |
| 1777810098 | 5.56° C | 98% | 1018.4 hPa | 0 mm | - | 48 W/m² | - |
| 1777809796 | 5.56° C | 98% | 1018.3 hPa | 0 mm | - | 46 W/m² | - |
| 1777809493 | 5.56° C | 98% | 1018.3 hPa | 0 mm | - | 45 W/m² | - |
| 1777809191 | 5° C | 98% | 1018.3 hPa | 0 mm | - | 44 W/m² | - |
| 1777808889 | 5° C | 98% | 1018.1 hPa | 0 mm | - | 43 W/m² | - |
| 1777808585 | 5° C | 98% | 1018.2 hPa | 0 mm | - | 41 W/m² | - |
| 1777808282 | 5° C | 98% | 1018.1 hPa | 0 mm | - | 40 W/m² | - |
| 1777807981 | 4.44° C | 98% | 1017.9 hPa | 0 mm | - | 34 W/m² | - |
| 1777807678 | 4.44° C | 98% | 1017.8 hPa | 0 mm | - | 33 W/m² | - |
| 1777807376 | 3.89° C | 98% | 1017.7 hPa | 0 mm | - | 32 W/m² | - |
| 1777807071 | 3.89° C | 98% | 1017.4 hPa | 0 mm | - | 30 W/m² | - |
| 1777806769 | 3.89° C | 98% | 1017.4 hPa | 0 mm | - | 28 W/m² | - |
| 1777806464 | 3.89° C | 98% | 1017.4 hPa | 0 mm | - | 26 W/m² | - |
| 1777806161 | 3.33° C | 98% | 1017.2 hPa | 0 mm | - | 24 W/m² | - |
| 1777805858 | 3.33° C | 98% | 1017 hPa | 0 mm | - | 22 W/m² | - |
| 1777805555 | 3.33° C | 98% | 1017 hPa | 0 mm | - | 19 W/m² | - |
| 1777805252 | 3.33° C | 98% | 1016.8 hPa | 0 mm | - | 17 W/m² | - |
| 1777804950 | 3.33° C | 98% | 1017 hPa | 0 mm | - | 14 W/m² | - |
* Rain latest hour (hover to see other rain measurements)
** Current wind speed in m/s (hover to see current wind gust speed)